GOES 16

Last updated on Fri Jul 11 2025 00:02:20 GMT+0000 (Coordinated Universal Time)

1 41866U 16071A 25191.59682160 -.00000078 00000+0 00000+0 0 9999 2 41866 0.0504 221.9471 0001211 284.6230 252.3270 1.00271926 31678
UTC large
Height (km)
Speed (km/s)
/
Latitude / Longitude
Inclination (degrees)
Orbital Period (minutes)
Azimuth
Elevation
Range (km)
Doppler Factor

Next 0 passes for location: London (51.5072 / 0.1276)

Sorry there are no passes over London.